NOAA NWS Hourly Roundups by Site

Regional Weather Roundup for Baltimore MD/Washington, DC

To Select Another Site Choose from List

Select Site:  

000
ASUS41 KLWX 040212
RWRLWX

REGIONAL WEATHER ROUNDUP
NATIONAL WEATHER SERVICE BALTIMORE MD/WASHINGTON DC
1000 PM EDT MON AUG 03 2020

Note: "FAIR" indicates few or no clouds below 12,000 feet
with no significant weather and/or obstructions to visibility.
 TC=TEMPERATURE CELSIUS

 * =Non NWS site. Station does not report precipitation (e.g. rain,
    snow, etc.), thunder, or fog.

DCZ001-MDZ009-015-VAZ040>042-051-053>054-040300-
WASHINGTON METRO

CITY           SKY/WX    TMP DP  RH WIND       PRES   REMARKS
WASHINGTON NAT LGT RAIN  74  72  93 S7        30.04R
DULLES         LGT RAIN  72  70  93 SW6       30.05R
ANDREWS AFB    CLOUDY    72  71  97 S6        30.03R
FT BELVOIR     CLOUDY    73  71  95 CALM      30.03S
QUANTICO       LGT RAIN  74  71  91 SW7       30.04S
COLLEGE PARK*  CLOUDY    72  69  93 CALM      30.03S
LEESBURG*      CLOUDY    64  64 100 S9        30.06R
MANASSAS*      LGT RAIN  71  70  96 CALM      30.05R
GAITHERSBURG*  CLOUDY    71  70  96 S5        30.05R

$$

MDZ006>007-011-014-040300-
BALTIMORE METRO

CITY           SKY/WX    TMP DP  RH WIND       PRES   REMARKS
BWI AIRPORT    CLOUDY    73  70  90 CALM      30.03R
MARTIN STATE   MOCLDY    73  73 100 CALM      30.05R
ANNAPOLIS      CLOUDY    74  70  87 S3        30.03R
ABERDEEN*      LGT RAIN  72  72 100 CALM      30.02R
FORT MEADE*      N/A     70  70 100 CALM      30.06S

$$

MDZ012-015-019>023-040300-
MARYLAND EASTERN SHORE

CITY           SKY/WX    TMP DP  RH WIND       PRES   REMARKS
OCEAN CITY     CLOUDY    76  70  82 CALM      30.06S
SALISBURY      CLOUDY    77  73  87 E3        30.05R
BAY BRIDGE AP* CLOUDY    75  73  94 CALM      30.04R
CAMBRIDGE*     CLOUDY    75  75 100 CALM      30.05S

$$

MDZ017>025-040300-
SOUTHERN MARYLAND

CITY           SKY/WX    TMP DP  RH WIND       PRES   REMARKS
PATUXENT RIVER LGT RAIN  76  75  97 CALM      30.04S
ST INIGOES     LGT RAIN  78  77  96 E3        30.03S
LEONARDTOWN*   CLOUDY    72  70  94 CALM      30.06R

$$

MDZ003>005-040300-
NORTH CENTRAL MARYLAND

CITY           SKY/WX    TMP DP  RH WIND       PRES   REMARKS
FREDERICK*     DRIZZLE   72  70  94 CALM      30.04R
HAGERSTOWN APT LGT RAIN  72  70  94 S6        30.04R
WESTMINSTER*   LGT RAIN  72  70  94 S5        30.05R

$$

MDZ501>502-040300-
WESTERN MARYLAND

CITY           SKY/WX    TMP DP  RH WIND       PRES   REMARKS
OAKLAND*       CLOUDY    63  63 100 SE8       30.09R
CUMBERLAND*    CLOUDY    72  67  83 CALM      30.06R

$$

VAZ025>031-040300-
SHENANDOAH VALLEY

CITY           SKY/WX    TMP DP  RH WIND       PRES   REMARKS
WINCHESTER*    CLOUDY    68  64  88 S7        30.02S
FRONT ROYAL*   CLOUDY    68  68 100 CALM      30.03S
LURAY*           N/A     68  68 100 CALM      30.04S
NEW MARKET*    CLOUDY   N/A N/A N/A CALM      30.05S
STAUNTON*      CLOUDY    66  66  98 W3        30.09R
WAYNESBORO*    CLOUDY    67  67  99 SE7       30.07S

$$

WVZ021-048>050-054>055-040300-
EASTERN WEST VIRGINIA PANHANDLE

CITY           SKY/WX    TMP DP  RH WIND       PRES   REMARKS
MARTINSBURG    LGT RAIN  70  69  97 CALM      30.02R
PETERSBURG*    CLOUDY    72  69  92 CALM      30.02S

$$

VAZ036>039-050-040300-
CENTRAL FOOTHILLS

CITY           SKY/WX    TMP DP  RH WIND       PRES   REMARKS
CHARLOTTESVILL CLOUDY    69  68  96 CALM      30.05S
CULPEPER*      LGT RAIN  72  70  95 CALM      30.06S
ORANGE*        LGT RAIN  70  68  94 CALM      30.05S
GORDONSVILLE*  CLOUDY    70  70 100 CALM      30.04F
WARRENTON*     RAIN      72  69  90 CALM      30.05S

$$

VAZ055>057-040300-
NORTH AND CENTRAL PIEDMONT

CITY           SKY/WX    TMP DP  RH WIND       PRES   REMARKS
FREDERICKSBRG* RAIN      73  73 100 CALM        N/A
STAFFORD*      LGT RAIN  73  73 100 CALM      30.08F

$$

NCZ024-NYZ072-PAZ021-071-VAZ022-071-040300-
OTHER REGIONAL OBSERVATIONS

CITY           SKY/WX    TMP DP  RH WIND       PRES   REMARKS
NEW YORK CITY  LGT RAIN  70  69  97 SW3       30.08F
PHILADELPHIA   CLOUDY    77  72  84 E3        30.03F
PITTSBURGH     CLOUDY    71  62  73 N8        29.98R
ROANOKE        CLOUDY    71  67  87 E9        30.05R
RICHMOND       LGT RAIN  73  71  93 N7        30.04S
RALEIGH        LGT RAIN  71  70  96 NE9       29.96S FOG

$$

ANZ530>537-040300-
MARINE OBSERVATIONS

STATION/POSITION TIME  TEMP    WIND        PRES
                       AIR SEA DIR/SP/G
                 (UTC) (F)     (DEG/KT/KT) (MB)
THOMAS PT LIGHT  0200   76 83  190/  5/  7 1017.6R
TOLCHESTER       0112      86                N/A
GOOSES REEF      0154   78 84     CALM       N/A
BALT HARBOR      0118      84                N/A
BALT KEY BRIDGE  0100   75                   N/A
WASH DC CHANNEL  0118      87                N/A
DAHLGREN         0112      85                N/A
LEWISETTA        0118      83                N/A
SOLOMONS ISLAND  0118      85                N/A
CAMBRIDGE PIER   0118      86                N/A
BISHOPS HEAD     0118      84                N/A

$$



 

View Past Reports for Baltimore MD/Washington, DC.

Products Courtesy of NOAA-NWS
NWS Information Parsing Script by Ken True at Saratoga Weather - Script by SE Lincoln Weather.

canadians